�������l�o���
Date,Time,MP-1(��Sv/h),MP-2(��Sv/h),MP-3(��Sv/h),MP-4(��Sv/h),MP-5(��Sv/h),MP-6(��Sv/h),MP-7(��Sv/h),MP-8(��Sv/h),����,����(m/s),���J
2021/06/21,00:00,0.621,0.922,0.589,1.136,0.808,0.371,0.648,0.604,�k��,1.4,��
2021/06/21,00:10,0.624,0.922,0.589,1.135,0.809,0.371,0.648,0.603,�k��,1.9,��
2021/06/21,00:20,0.622,0.922,0.589,1.136,0.808,0.370,0.649,0.603,�k,1.7,��
2021/06/21,00:30,0.623,0.922,0.589,1.135,0.809,0.371,0.647,0.603,�k�k��,2.0,��
2021/06/21,00:40,0.623,0.921,0.590,1.134,0.808,0.371,0.646,0.604,�k,2.0,��
2021/06/21,00:50,0.621,0.921,0.590,1.136,0.808,0.371,0.647,0.603,�k�k��,1.7,��
2021/06/21,01:00,0.622,0.922,0.590,1.136,0.809,0.372,0.648,0.603,�k�k��,2.3,��
2021/06/21,01:10,0.620,0.925,0.588,1.133,0.807,0.370,0.649,0.603,�k�k��,2.3,��
2021/06/21,01:20,0.621,0.921,0.588,1.138,0.808,0.371,0.648,0.604,�k�k��,2.5,��
2021/06/21,01:30,0.622,0.923,0.589,1.135,0.806,0.372,0.648,0.604,�k��,2.3,��
2021/06/21,01:40,0.623,0.921,0.589,1.136,0.809,0.373,0.648,0.603,�k��,2.3,��
2021/06/21,01:50,0.622,0.921,0.588,1.134,0.806,0.371,0.649,0.604,�k�k��,2.6,��
2021/06/21,02:00,0.622,0.923,0.588,1.134,0.807,0.372,0.648,0.601,�k�k��,3.2,��
2021/06/21,02:10,0.621,0.921,0.589,1.135,0.807,0.371,0.647,0.604,�k�k��,3.2,��
2021/06/21,02:20,0.620,0.922,0.590,1.137,0.807,0.371,0.646,0.601,�k��,2.9,��
2021/06/21,02:30,0.623,0.922,0.590,1.137,0.807,0.371,0.648,0.604,�k��,2.6,��
2021/06/21,02:40,0.620,0.923,0.590,1.137,0.806,0.371,0.648,0.603,�k��,1.9,��
2021/06/21,02:50,0.622,0.920,0.588,1.135,0.808,0.370,0.648,0.604,�k��,1.7,��
2021/06/21,03:00,0.621,0.921,0.590,1.135,0.807,0.371,0.648,0.605,�k��,2.0,��
2021/06/21,03:10,0.621,0.923,0.587,1.137,0.806,0.372,0.647,0.602,���k��,2.2,��
2021/06/21,03:20,0.621,0.921,0.590,1.137,0.807,0.372,0.646,0.604,��,2.0,��
2021/06/21,03:30,0.621,0.921,0.589,1.138,0.809,0.370,0.648,0.603,��,1.2,��
2021/06/21,03:40,0.621,0.922,0.588,1.136,0.807,0.372,0.648,0.604,���k��,1.4,��
2021/06/21,03:50,0.621,0.920,0.589,1.136,0.805,0.371,0.648,0.604,��,0.9,��
2021/06/21,04:00,0.622,0.922,0.589,1.137,0.808,0.372,0.649,0.602,�쐼,1.2,��
2021/06/21,04:10,0.621,0.921,0.589,1.138,0.808,0.371,0.647,0.603,�쐼,1.5,��
2021/06/21,04:20,0.621,0.920,0.588,1.135,0.810,0.371,0.648,0.604,��,1.7,��
2021/06/21,04:30,0.621,0.921,0.588,1.135,0.805,0.371,0.646,0.604,��,1.1,��
2021/06/21,04:40,0.621,0.920,0.588,1.136,0.809,0.371,0.649,0.604,��쐼,1.2,��
2021/06/21,04:50,0.622,0.921,0.588,1.137,0.807,0.371,0.647,0.604,��,1.1,��
2021/06/21,05:00,0.621,0.920,0.589,1.137,0.807,0.370,0.647,0.605,��쐼,1.5,��
2021/06/21,05:10,0.622,0.918,0.588,1.137,0.808,0.372,0.649,0.603,��쐼,1.7,��
2021/06/21,05:20,0.624,0.921,0.588,1.136,0.806,0.371,0.647,0.602,��쐼,1.5,��
2021/06/21,05:30,0.622,0.922,0.589,1.138,0.805,0.371,0.648,0.603,��쐼,2.3,��
2021/06/21,05:40,0.623,0.922,0.590,1.137,0.809,0.371,0.649,0.604,��쐼,2.6,��
2021/06/21,05:50,0.622,0.921,0.588,1.138,0.809,0.371,0.648,0.604,�쐼,2.0,��
2021/06/21,06:00,0.621,0.920,0.589,1.138,0.807,0.372,0.649,0.602,��쐼,1.7,��
2021/06/21,06:10,0.623,0.923,0.589,1.137,0.807,0.371,0.648,0.604,��쐼,2.0,��
2021/06/21,06:20,0.621,0.922,0.587,1.136,0.806,0.372,0.649,0.605,��,1.7,��
2021/06/21,06:30,0.623,0.918,0.589,1.134,0.808,0.372,0.650,0.604,��,2.2,��
2021/06/21,06:40,0.623,0.921,0.590,1.136,0.808,0.371,0.649,0.605,��쓌,2.3,��
2021/06/21,06:50,0.622,0.920,0.591,1.134,0.807,0.370,0.649,0.604,��쓌,3.1,��
2021/06/21,07:00,0.622,0.920,0.590,1.137,0.808,0.369,0.650,0.605,��쓌,3.1,��
2021/06/21,07:10,0.623,0.919,0.590,1.137,0.808,0.369,0.650,0.604,��쓌,3.0,��
2021/06/21,07:20,0.621,0.922,0.589,1.138,0.808,0.369,0.647,0.604,��쓌,3.3,��
2021/06/21,07:30,0.622,0.922,0.588,1.138,0.807,0.368,0.648,0.604,��쓌,2.9,��
2021/06/21,07:40,0.622,0.923,0.588,1.136,0.805,0.369,0.649,0.602,�쓌,3.7,��
2021/06/21,07:50,0.623,0.923,0.589,1.138,0.806,0.368,0.647,0.602,�쓌,3.7,��
2021/06/21,08:00,0.621,0.923,0.589,1.141,0.806,0.369,0.649,0.601,��쓌,4.5,��
2021/06/21,08:10,0.621,0.924,0.588,1.138,0.809,0.370,0.647,0.603,��쓌,4.4,��
2021/06/21,08:20,0.623,0.922,0.591,1.136,0.807,0.369,0.649,0.603,�쓌,4.4,��
2021/06/21,08:30,0.621,0.922,0.590,1.138,0.807,0.370,0.647,0.602,�쓌,2.6,��
2021/06/21,08:40,0.622,0.922,0.589,1.137,0.808,0.370,0.649,0.602,�쓌,2.5,��
2021/06/21,08:50,0.622,0.923,0.590,1.139,0.807,0.368,0.648,0.603,�쓌,3.4,��
2021/06/21,09:00,0.624,0.922,0.591,1.139,0.807,0.371,0.647,0.601,�쓌,3.5,��
2021/06/21,09:10,0.623,0.923,0.589,1.138,0.809,0.370,0.647,0.605,�쓌,4.2,��
2021/06/21,09:20,0.622,0.922,0.591,1.139,0.808,0.371,0.648,0.605,��쓌,3.8,��
2021/06/21,09:30,0.624,0.924,0.589,1.137,0.808,0.371,0.648,0.602,��쓌,4.7,��
2021/06/21,09:40,0.623,0.922,0.591,1.137,0.810,0.372,0.649,0.602,��쓌,5.5,��
2021/06/21,09:50,0.624,0.924,0.590,1.140,0.808,0.371,0.648,0.601,�쓌,5.3,��
2021/06/21,10:00,0.624,0.924,0.592,1.140,0.811,0.369,0.648,0.602,��쓌,5.2,��
2021/06/21,10:10,0.626,0.923,0.590,1.140,0.809,0.371,0.650,0.604,��쓌,4.6,��
2021/06/21,10:20,0.625,0.926,0.589,1.139,0.812,0.371,0.648,0.602,�쓌,4.5,��
2021/06/21,10:30,0.626,0.925,0.590,1.138,0.813,0.371,0.648,0.603,��쓌,5.3,��
2021/06/21,10:40,0.625,0.925,0.590,1.140,0.812,0.371,0.648,0.601,��쓌,5.1,��
2021/06/21,10:50,0.626,0.928,0.590,1.137,0.810,0.370,0.650,0.604,�쓌,4.9,��
2021/06/21,11:00,0.627,0.927,0.592,1.139,0.810,0.372,0.649,0.603,�쓌,4.8,��
2021/06/21,11:10,0.626,0.927,0.591,1.137,0.810,0.370,0.648,0.603,��쓌,4.6,��
2021/06/21,11:20,0.626,0.927,0.590,1.137,0.814,0.370,0.648,0.604,��쓌,5.5,��
2021/06/21,11:30,0.624,0.927,0.590,1.137,0.815,0.371,0.648,0.601,��쓌,6.0,��
2021/06/21,11:40,0.627,0.929,0.592,1.138,0.814,0.370,0.650,0.603,��쓌,7.1,��
2021/06/21,11:50,0.626,0.929,0.593,1.137,0.813,0.371,0.649,0.603,�쓌,7.2,��
2021/06/21,12:00,0.626,0.931,0.594,1.139,0.815,0.372,0.649,0.602,��쓌,6.8,��
2021/06/21,12:10,0.627,0.932,0.592,1.140,0.815,0.372,0.649,0.603,��쓌,8.3,��
2021/06/21,12:20,0.628,0.931,0.592,1.140,0.817,0.371,0.649,0.603,��쓌,7.7,��
2021/06/21,12:30,0.626,0.930,0.593,1.140,0.815,0.373,0.650,0.603,��쓌,8.4,��
2021/06/21,12:40,0.627,0.934,0.592,1.139,0.816,0.371,0.649,0.603,��쓌,7.6,��
2021/06/21,12:50,0.629,0.931,0.593,1.139,0.816,0.372,0.649,0.604,��쓌,6.9,��
2021/06/21,13:00,0.627,0.932,0.593,1.140,0.817,0.371,0.649,0.604,��쓌,8.3,��
2021/06/21,13:10,0.626,0.929,0.595,1.142,0.817,0.374,0.650,0.602,��,8.2,��
2021/06/21,13:20,0.628,0.931,0.593,1.140,0.815,0.373,0.648,0.603,��쓌,8.4,��
2021/06/21,13:30,0.629,0.928,0.592,1.141,0.818,0.374,0.649,0.604,��쓌,9.7,��
2021/06/21,13:40,0.627,0.932,0.594,1.139,0.817,0.372,0.650,0.604,��쓌,8.6,��
2021/06/21,13:50,0.630,0.929,0.592,1.140,0.817,0.373,0.649,0.603,��쓌,9.2,��
2021/06/21,14:00,0.628,0.930,0.592,1.141,0.816,0.372,0.648,0.605,��쓌,8.1,��
2021/06/21,14:10,0.627,0.931,0.594,1.141,0.816,0.374,0.648,0.603,��쓌,7.1,��
2021/06/21,14:20,0.628,0.931,0.592,1.145,0.817,0.374,0.649,0.604,��쓌,8.2,��
2021/06/21,14:30,0.628,0.929,0.593,1.141,0.819,0.373,0.650,0.605,��쓌,7.9,��
2021/06/21,14:40,0.629,0.929,0.594,1.143,0.819,0.374,0.650,0.604,��쓌,8.5,��
2021/06/21,14:50,0.631,0.933,0.594,1.142,0.819,0.375,0.649,0.605,��쓌,9.1,��
2021/06/21,15:00,0.628,0.932,0.593,1.143,0.819,0.373,0.650,0.604,��쓌,8.9,��
2021/06/21,15:10,0.627,0.933,0.594,1.144,0.818,0.374,0.651,0.604,��쓌,9.5,��
2021/06/21,15:20,0.629,0.935,0.594,1.141,0.818,0.375,0.650,0.605,��쓌,10.6,��
2021/06/21,15:30,0.630,0.933,0.594,1.145,0.819,0.375,0.649,0.604,��쓌,10.7,��
2021/06/21,15:40,0.628,0.932,0.593,1.145,0.819,0.374,0.649,0.604,��쓌,11.3,��
2021/06/21,15:50,0.629,0.933,0.594,1.141,0.819,0.375,0.650,0.605,��쓌,9.9,��
2021/06/21,16:00,0.630,0.933,0.595,1.143,0.821,0.375,0.651,0.605,��쓌,9.8,��
2021/06/21,16:10,0.629,0.934,0.594,1.142,0.819,0.373,0.648,0.604,��쓌,9.6,��
2021/06/21,16:20,0.628,0.933,0.593,1.142,0.821,0.374,0.650,0.603,��쓌,9.9,��
2021/06/21,16:30,0.628,0.932,0.592,1.142,0.820,0.375,0.649,0.605,��쓌,9.3,��
2021/06/21,16:40,0.627,0.933,0.594,1.144,0.822,0.376,0.648,0.604,��쓌,10.8,��
2021/06/21,16:50,0.628,0.934,0.595,1.144,0.820,0.375,0.650,0.603,��쓌,9.3,��
2021/06/21,17:00,0.627,0.932,0.594,1.143,0.821,0.375,0.650,0.605,��쓌,9.2,��
2021/06/21,17:10,0.628,0.934,0.594,1.142,0.820,0.374,0.648,0.603,��쓌,9.1,��
2021/06/21,17:20,0.629,0.934,0.594,1.145,0.822,0.375,0.649,0.604,��쓌,9.7,��
2021/06/21,17:30,0.630,0.934,0.594,1.144,0.819,0.375,0.648,0.603,��쓌,9.2,��
2021/06/21,17:40,0.629,0.935,0.595,1.143,0.819,0.374,0.649,0.604,��쓌,9.4,��
2021/06/21,17:50,0.629,0.933,0.594,1.144,0.818,0.375,0.649,0.603,��쓌,9.6,��
2021/06/21,18:00,0.627,0.933,0.593,1.146,0.818,0.375,0.649,0.604,��쓌,10.3,��
2021/06/21,18:10,0.629,0.932,0.595,1.146,0.819,0.376,0.649,0.605,��쓌,9.2,��
2021/06/21,18:20,0.628,0.933,0.594,1.147,0.820,0.374,0.648,0.606,��,10.0,��
2021/06/21,18:30,0.626,0.935,0.593,1.149,0.817,0.374,0.650,0.606,��쓌,10.3,��
2021/06/21,18:40,0.627,0.935,0.594,1.148,0.819,0.375,0.649,0.607,��,10.5,��
2021/06/21,18:50,0.630,0.934,0.593,1.147,0.820,0.374,0.650,0.606,��,8.6,��
2021/06/21,19:00,0.629,0.934,0.595,1.147,0.819,0.375,0.651,0.605,��,9.8,��
2021/06/21,19:10,0.629,0.931,0.594,1.150,0.818,0.374,0.651,0.607,��,8.7,��
2021/06/21,19:20,0.628,0.936,0.594,1.147,0.819,0.374,0.651,0.607,��,8.9,��
2021/06/21,19:30,0.630,0.936,0.596,1.149,0.819,0.376,0.652,0.605,��,8.6,��
2021/06/21,19:40,0.629,0.938,0.596,1.148,0.820,0.375,0.652,0.604,��,8.7,��
2021/06/21,19:50,0.630,0.938,0.596,1.148,0.821,0.375,0.652,0.608,��,7.5,��
2021/06/21,20:00,0.630,0.938,0.597,1.147,0.820,0.375,0.651,0.606,��쓌,7.8,��
2021/06/21,20:10,0.629,0.937,0.597,1.147,0.823,0.375,0.651,0.606,��쓌,6.8,��
2021/06/21,20:20,0.629,0.937,0.596,1.147,0.821,0.374,0.651,0.608,��,6.0,��
2021/06/21,20:30,0.630,0.940,0.595,1.147,0.822,0.375,0.652,0.606,��,4.8,��
2021/06/21,20:40,0.628,0.938,0.597,1.149,0.821,0.375,0.652,0.605,��쓌,3.3,��
2021/06/21,20:50,0.630,0.937,0.596,1.148,0.821,0.374,0.652,0.606,��쓌,5.5,��
2021/06/21,21:00,0.630,0.939,0.596,1.148,0.821,0.376,0.650,0.606,��,5.1,��
2021/06/21,21:10,0.629,0.938,0.595,1.146,0.821,0.375,0.651,0.607,��,5.0,��
2021/06/21,21:20,0.630,0.939,0.597,1.148,0.822,0.374,0.652,0.604,��,5.3,��
2021/06/21,21:30,0.632,0.940,0.597,1.149,0.822,0.374,0.651,0.606,��,3.8,��
2021/06/21,21:40,0.630,0.940,0.595,1.147,0.821,0.373,0.650,0.605,��,4.5,��
2021/06/21,21:50,0.629,0.940,0.596,1.148,0.823,0.374,0.652,0.605,��,3.6,��
2021/06/21,22:00,0.630,0.936,0.596,1.148,0.823,0.375,0.651,0.605,��쐼,2.2,��
2021/06/21,22:10,0.630,0.937,0.595,1.145,0.823,0.374,0.653,0.606,��,2.6,��
2021/06/21,22:20,0.630,0.940,0.595,1.148,0.824,0.375,0.650,0.606,��,2.6,��
2021/06/21,22:30,0.632,0.940,0.596,1.147,0.822,0.372,0.651,0.605,��쐼,1.2,��
2021/06/21,22:40,0.630,0.940,0.596,1.150,0.823,0.375,0.651,0.606,-,CALM,��
2021/06/21,22:50,0.632,0.938,0.597,1.147,0.827,0.374,0.651,0.605,�k��,2.0,��
2021/06/21,23:00,0.633,0.942,0.596,1.149,0.823,0.374,0.653,0.606,�k��,3.4,��
2021/06/21,23:10,0.633,0.941,0.596,1.150,0.825,0.376,0.652,0.607,�k��,3.0,��
2021/06/21,23:20,0.632,0.940,0.596,1.150,0.825,0.375,0.653,0.606,�k�k��,2.8,��
2021/06/21,23:30,0.631,0.940,0.597,1.150,0.823,0.376,0.651,0.607,�k�k��,3.0,��
2021/06/21,23:40,0.630,0.938,0.597,1.148,0.822,0.374,0.652,0.607,�k,2.6,��
2021/06/21,23:50,0.630,0.941,0.595,1.149,0.824,0.375,0.652,0.607,�k,3.0,��
